This is the latest recevied weather packets stored in our database for station/object F8KHU-13. If no packets are shown the sender has not sent any weather packets the latest 10 day(s).
| Time | Temp. | Humidity | Pressure | Rain* | Wind** | Luminosity | Snow |
|---|---|---|---|---|---|---|---|
| 1788643524 | 18.33° C | 28% | 1026.3 hPa | 0 mm | - | 0 W/m² | - |
| 1788642664 | 18.33° C | 28% | 1026.2 hPa | 0 mm | - | 0 W/m² | - |
| 1788642644 | 18.33° C | 28% | 1026.1 hPa | 0 mm | - | 0 W/m² | - |
| 1788642624 | 18.33° C | 28% | 1026.2 hPa | 0 mm | - | 0 W/m² | - |
| 1788641744 | 18.89° C | 28% | 1026.1 hPa | 0 mm | - | 0 W/m² | - |
| 1788640864 | 18.89° C | 28% | 1026.1 hPa | 0 mm | - | 0 W/m² | - |
| 1788640844 | 18.89° C | 28% | 1026.2 hPa | 0 mm | - | 0 W/m² | - |
| 1788639964 | 19.44° C | 27% | 1026.3 hPa | 0 mm | - | 0 W/m² | - |
| 1788639944 | 19.44° C | 27% | 1026.2 hPa | 0 mm | - | 0 W/m² | - |
| 1788639925 | 19.44° C | 27% | 1026.3 hPa | 0 mm | - | 0 W/m² | - |
| 1788639065 | 20° C | 27% | 1026.3 hPa | 0 mm | - | 0 W/m² | - |
| 1788639045 | 20° C | 27% | 1026.2 hPa | 0 mm | - | 0 W/m² | - |
| 1788639025 | 20° C | 28% | 1026.3 hPa | 0 mm | - | 0 W/m² | - |
| 1788638165 | 20.56° C | 27% | 1026.2 hPa | 0 mm | - | 0 W/m² | - |
| 1788638125 | 20.56° C | 27% | 1026.2 hPa | 0 mm | - | 0 W/m² | - |
| 1788637265 | 21.11° C | 27% | 1026.1 hPa | 0 mm | - | 0 W/m² | - |
| 1788637225 | 21.11° C | 27% | 1026.1 hPa | 0 mm | - | 0 W/m² | - |
| 1788636365 | 21.67° C | 26% | 1026.2 hPa | 0 mm | - | 0 W/m² | - |
| 1788636345 | 21.67° C | 26% | 1026.2 hPa | 0 mm | - | 0 W/m² | - |
| 1788635445 | 22.22° C | 25% | 1025.9 hPa | 0 mm | - | 0 W/m² | - |
| 1788635425 | 21.67° C | 27% | 1025.9 hPa | 0 mm | - | 0 W/m² | - |
| 1788634565 | 22.78° C | 26% | 1025.7 hPa | 0 mm | - | 0 W/m² | - |
| 1788634545 | 22.78° C | 25% | 1025.6 hPa | 0 mm | - | 0 W/m² | - |
| 1788634525 | 22.78° C | 26% | 1025.7 hPa | 0 mm | - | 0 W/m² | - |
| 1788633625 | 23.33° C | 26% | 1025.6 hPa | 0 mm | - | 0 W/m² | - |
* Rain latest hour (hover to see other rain measurements)
** Current wind speed in m/s (hover to see current wind gust speed)